contact:dominique.lefevre@mio.osupytheas.fr, maurice.libes@osupytheas.fr, didier.mallarino@osupytheas.fr
Project:EMSO http://www.emso-fr.org/EMSO-France
Depth: 2436.0 m
Title:EMSO Ligure Ouest : Data MII capteur AQUADOPP
Date,Latitude,Longitude,X_East,Y_North,Z_Up,Amplitude_X,Amplitude_Y,Amplitude_Z,Batterie,SoundSpeed,Heading,Pitch,Roll,Pressure,TIS,Speed,Direction
, degrees North, degrees East, m.s-1, m.s-1,m.s-1, 1, 1, 1, Volt, m.s-1, degree, degree, degree, dbar, degree_C, m.s-1, degree
2021-03-30T00:04:03,42.805,6.029,-0.028,-0.006,-0.002,110.0,109.0,105.0,13.3,1505.2,327.3,-0.8,1.8,2470.159,13.28,0.028,257.9
2021-03-30T00:07:03,42.805,6.029,-0.02,0.004,0.043,111.0,109.0,105.0,13.3,1505.2,327.6,-0.8,1.8,2470.149,13.28,0.02,281.3
2021-03-30T00:10:03,42.805,6.029,-0.005,0.002,0.016,110.0,109.0,106.0,13.4,1505.2,327.5,-0.8,1.8,2470.105,13.28,0.005,291.8
2021-03-30T00:13:03,42.805,6.029,-0.029,-0.002,-0.026,109.0,109.0,106.0,13.4,1505.2,327.1,-0.7,1.8,2470.09,13.28,0.029,266.1
2021-03-30T00:16:03,42.805,6.029,-0.03,-0.005,0.008,110.0,109.0,105.0,13.3,1505.2,327.7,-0.8,1.9,2470.119,13.28,0.03,260.5
2021-03-30T00:19:03,42.805,6.029,-0.017,0.006,0.005,109.0,109.0,105.0,13.3,1505.2,327.4,-0.7,1.8,2470.067,13.28,0.018,289.4
2021-03-30T00:22:03,42.805,6.029,-0.019,-0.001,0.025,108.0,109.0,106.0,13.4,1505.2,327.1,-0.8,1.8,2470.08,13.28,0.019,267.0
2021-03-30T00:25:03,42.805,6.029,-0.034,-0.001,0.002,110.0,110.0,106.0,13.3,1505.2,327.0,-0.8,1.8,2470.106,13.28,0.034,268.3
2021-03-30T00:28:03,42.805,6.029,-0.014,-0.001,-0.016,109.0,108.0,104.0,13.4,1505.2,327.8,-0.8,1.8,2470.107,13.28,0.014,265.9
2021-03-30T00:31:03,42.805,6.029,-0.018,-0.001,0.022,110.0,109.0,106.0,13.4,1505.2,327.5,-0.8,1.9,2470.088,13.28,0.018,266.8
2021-03-30T00:34:03,42.805,6.029,-0.044,0.004,-0.04,109.0,106.0,103.0,13.3,1505.2,327.7,-0.7,1.8,2470.089,13.28,0.044,275.2
2021-03-30T00:37:03,42.805,6.029,-0.03,-0.005,-0.009,108.0,109.0,105.0,13.4,1505.2,327.6,-0.7,1.8,2470.064,13.28,0.03,260.5
2021-03-30T00:40:03,42.805,6.029,-0.03,0.007,-0.015,110.0,108.0,106.0,13.4,1505.2,327.6,-0.8,1.8,2470.108,13.28,0.03,283.1
2021-03-30T00:43:03,42.805,6.029,-0.025,0.001,-0.013,107.0,108.0,105.0,13.4,1505.2,327.3,-0.8,1.9,2470.127,13.28,0.025,272.3
2021-03-30T00:46:03,42.805,6.029,-0.029,0.018,-0.016,109.0,109.0,104.0,13.4,1505.2,327.5,-0.7,1.8,2470.096,13.28,0.034,301.8
2021-03-30T00:49:03,42.805,6.029,-0.03,0.0,0.001,108.0,109.0,105.0,13.3,1505.2,327.1,-0.8,1.8,2470.128,13.28,0.03,270.0
2021-03-30T00:52:03,42.805,6.029,-0.015,-0.003,-0.012,109.0,109.0,105.0,13.4,1505.2,327.6,-0.7,1.8,2470.118,13.28,0.015,258.7
2021-03-30T00:55:03,42.805,6.029,-0.02,0.014,-0.003,110.0,108.0,103.0,13.3,1505.2,327.6,-0.8,1.8,2470.127,13.28,0.024,305.0
2021-03-30T00:58:03,42.805,6.029,-0.007,0.011,0.008,108.0,108.0,106.0,13.4,1505.2,327.6,-0.8,1.8,2470.098,13.28,0.013,327.5
2021-03-30T01:04:03,42.805,6.029,-0.034,-0.009,-0.017,108.0,108.0,105.0,13.4,1505.2,327.4,-0.8,1.9,2470.121,13.28,0.035,255.2
2021-03-30T01:07:03,42.805,6.029,-0.016,-0.002,-0.018,109.0,108.0,105.0,13.4,1505.2,327.6,-0.7,1.8,2470.142,13.28,0.016,262.9
2021-03-30T01:10:03,42.805,6.029,-0.012,-0.009,0.019,108.0,107.0,104.0,13.3,1505.2,327.7,-0.7,1.8,2470.132,13.28,0.015,233.1
2021-03-30T01:13:03,42.805,6.029,-0.015,-0.009,0.001,109.0,109.0,105.0,13.3,1505.2,327.1,-0.8,1.8,2470.126,13.28,0.017,239.0
2021-03-30T01:16:03,42.805,6.029,-0.014,0.007,-0.018,108.0,107.0,103.0,13.3,1505.2,327.7,-0.8,1.8,2470.077,13.28,0.015,296.6
2021-03-30T01:19:03,42.805,6.029,-0.047,0.005,-0.029,108.0,109.0,105.0,13.4,1505.2,327.3,-0.7,1.8,2470.087,13.28,0.047,276.1
2021-03-30T01:22:03,42.805,6.029,-0.023,-0.024,0.007,109.0,110.0,105.0,13.4,1505.2,327.1,-0.8,1.8,2470.14,13.28,0.033,223.8
2021-03-30T01:25:03,42.805,6.029,-0.035,0.022,-0.015,109.0,108.0,104.0,13.4,1505.2,327.6,-0.7,1.8,2470.112,13.28,0.041,302.2
2021-03-30T01:28:03,42.805,6.029,-0.018,-0.017,-0.016,109.0,107.0,103.0,13.3,1505.2,326.9,-0.8,1.8,2470.097,13.28,0.024,226.6
2021-03-30T01:31:03,42.805,6.029,-0.033,0.002,0.014,109.0,108.0,105.0,13.4,1505.2,327.3,-0.7,1.8,2470.077,13.28,0.033,273.5
2021-03-30T01:34:03,42.805,6.029,-0.005,0.002,-0.019,109.0,108.0,106.0,13.4,1505.2,327.4,-0.7,1.8,2470.128,13.28,0.005,291.8
2021-03-30T01:37:03,42.805,6.029,-0.043,0.016,-0.016,109.0,109.0,105.0,13.4,1505.2,327.8,-0.7,1.8,2470.095,13.28,0.045,290.4
2021-03-30T01:40:03,42.805,6.029,-0.011,0.012,0.027,110.0,110.0,104.0,13.3,1505.2,327.2,-0.8,1.8,2470.13,13.28,0.016,317.5
2021-03-30T01:43:03,42.805,6.029,-0.002,0.007,0.022,110.0,109.0,106.0,13.4,1505.2,327.4,-0.8,1.8,2470.1,13.28,0.007,344.1
2021-03-30T01:46:03,42.805,6.029,-0.019,0.005,0.003,110.0,109.0,106.0,13.4,1505.2,327.5,-0.8,1.8,2470.162,13.28,0.019,284.7
2021-03-30T01:49:03,42.805,6.029,-0.022,-0.014,-0.005,110.0,110.0,106.0,13.4,1505.2,327.4,-0.8,1.8,2470.119,13.28,0.026,237.5
2021-03-30T01:52:03,42.805,6.029,-0.027,-0.019,0.006,109.0,111.0,106.0,13.3,1505.2,327.1,-0.7,1.8,2470.119,13.28,0.033,234.9
2021-03-30T01:55:03,42.805,6.029,-0.025,-0.002,0.008,111.0,109.0,106.0,13.3,1505.2,327.3,-0.8,1.8,2470.083,13.29,0.025,265.4
2021-03-30T01:58:03,42.805,6.029,-0.017,0.0,-0.007,111.0,110.0,106.0,13.4,1505.2,327.2,-0.8,1.8,2470.101,13.29,0.017,270.0
2021-03-30T02:04:03,42.805,6.029,-0.037,-0.01,0.003,110.0,112.0,107.0,13.4,1505.2,327.3,-0.8,1.8,2470.154,13.28,0.038,254.9
2021-03-30T02:07:03,42.805,6.029,-0.014,0.003,-0.002,111.0,109.0,106.0,13.4,1505.2,327.3,-0.8,1.8,2470.154,13.28,0.014,282.1
2021-03-30T02:10:03,42.805,6.029,-0.031,-0.016,-0.041,111.0,111.0,106.0,13.4,1505.2,327.4,-0.8,1.8,2470.108,13.28,0.034,242.7
2021-03-30T02:13:03,42.805,6.029,-0.018,0.007,-0.039,110.0,110.0,108.0,13.4,1505.2,327.4,-0.8,1.8,2470.107,13.28,0.019,291.2
2021-03-30T02:16:03,42.805,6.029,-0.016,0.013,0.021,111.0,110.0,106.0,13.4,1505.2,327.4,-0.7,1.8,2470.081,13.28,0.02,309.1
2021-03-30T02:19:03,42.805,6.029,-0.032,-0.001,0.002,110.0,110.0,108.0,13.3,1505.2,327.6,-0.7,1.8,2470.122,13.28,0.032,268.2
2021-03-30T02:22:03,42.805,6.029,-0.036,-0.01,-0.005,110.0,109.0,106.0,13.4,1505.2,327.6,-0.7,1.8,2470.125,13.28,0.037,254.5
2021-03-30T02:25:03,42.805,6.029,-0.021,-0.006,0.023,110.0,108.0,107.0,13.4,1505.2,327.8,-0.7,1.8,2470.124,13.28,0.021,254.1
2021-03-30T02:28:03,42.805,6.029,-0.049,-0.009,0.007,110.0,111.0,105.0,13.4,1505.2,327.8,-0.7,1.8,2470.137,13.28,0.049,259.6
2021-03-30T02:31:03,42.805,6.029,-0.019,-0.006,0.017,111.0,111.0,107.0,13.3,1505.2,327.3,-0.7,1.8,2470.11,13.29,0.019,252.5
2021-03-30T02:34:03,42.805,6.029,-0.036,0.013,0.002,110.0,112.0,106.0,13.3,1505.2,327.2,-0.8,1.8,2470.118,13.29,0.038,289.9
2021-03-30T02:37:03,42.805,6.029,-0.023,0.026,0.014,110.0,108.0,106.0,13.4,1505.2,327.6,-0.8,1.9,2470.1,13.29,0.034,318.5
2021-03-30T02:40:03,42.805,6.029,-0.02,-0.004,-0.003,111.0,111.0,104.0,13.4,1505.2,327.4,-0.7,1.8,2470.101,13.29,0.02,258.7
2021-03-30T02:43:03,42.805,6.029,-0.03,-0.005,-0.012,111.0,111.0,107.0,13.3,1505.2,327.3,-0.8,1.8,2470.124,13.29,0.03,260.5
2021-03-30T02:46:03,42.805,6.029,-0.016,-0.001,0.0,111.0,110.0,107.0,13.4,1505.2,328.1,-0.7,1.8,2470.108,13.29,0.016,266.4
2021-03-30T02:49:03,42.805,6.029,-0.009,0.006,0.003,112.0,110.0,106.0,13.3,1505.2,327.1,-0.8,1.8,2470.14,13.29,0.01,303.7
2021-03-30T02:52:03,42.805,6.029,-0.026,-0.015,-0.003,111.0,111.0,107.0,13.3,1505.2,327.7,-0.8,1.8,2470.113,13.28,0.03,240.0
2021-03-30T02:55:03,42.805,6.029,-0.017,-0.002,0.017,110.0,111.0,106.0,13.3,1505.2,327.4,-0.8,1.8,2470.113,13.29,0.017,263.3
2021-03-30T02:58:03,42.805,6.029,-0.015,-0.019,0.011,111.0,112.0,105.0,13.3,1505.2,327.5,-0.7,1.8,2470.154,13.29,0.024,218.3
2021-03-30T03:04:03,42.805,6.029,-0.018,0.015,-0.01,110.0,111.0,106.0,13.4,1505.2,327.5,-0.7,1.8,2470.134,13.28,0.023,309.8
2021-03-30T03:07:03,42.805,6.029,0.004,-0.003,0.0,111.0,111.0,107.0,13.4,1505.2,327.2,-0.8,1.9,2470.109,13.28,0.005,126.9
2021-03-30T03:10:03,42.805,6.029,-0.009,-0.001,-0.011,113.0,110.0,107.0,13.4,1505.2,327.4,-0.8,1.8,2470.1,13.28,0.009,263.7
2021-03-30T03:13:03,42.805,6.029,-0.021,0.013,-0.017,112.0,109.0,106.0,13.4,1505.2,327.3,-0.7,1.8,2470.154,13.28,0.024,301.8
2021-03-30T03:16:03,42.805,6.029,-0.035,0.0,0.01,110.0,109.0,107.0,13.4,1505.2,327.8,-0.7,1.9,2470.11,13.29,0.035,270.0
2021-03-30T03:19:03,42.805,6.029,-0.014,0.002,-0.008,110.0,110.0,107.0,13.4,1505.2,327.6,-0.7,1.8,2470.132,13.29,0.014,278.1
2021-03-30T03:22:03,42.805,6.029,-0.017,0.012,-0.005,110.0,109.0,107.0,13.4,1505.2,327.3,-0.8,1.8,2470.09,13.29,0.02,305.2
2021-03-30T03:25:03,42.805,6.029,-0.015,-0.005,0.022,111.0,109.0,106.0,13.4,1505.2,327.5,-0.7,1.8,2470.084,13.29,0.015,251.6
2021-03-30T03:28:03,42.805,6.029,-0.012,-0.004,-0.001,112.0,110.0,104.0,13.4,1505.2,327.2,-0.8,1.8,2470.139,13.29,0.012,251.6
2021-03-30T03:31:03,42.805,6.029,-0.01,-0.006,0.005,111.0,110.0,105.0,13.4,1505.2,327.5,-0.8,1.8,2470.158,13.29,0.011,239.0
2021-03-30T03:34:03,42.805,6.029,-0.012,0.002,0.004,111.0,110.0,107.0,13.4,1505.2,327.5,-0.7,1.8,2470.114,13.29,0.012,279.5
2021-03-30T03:37:03,42.805,6.029,-0.006,0.009,-0.029,109.0,108.0,106.0,13.4,1505.2,327.7,-0.8,1.8,2470.097,13.29,0.01,326.3
2021-03-30T03:40:03,42.805,6.029,-0.016,0.009,0.024,111.0,109.0,107.0,13.3,1505.2,327.5,-0.8,1.8,2470.117,13.29,0.018,299.4
2021-03-30T03:43:03,42.805,6.029,-0.013,-0.007,0.004,109.0,108.0,105.0,13.3,1505.2,327.8,-0.7,1.8,2470.133,13.29,0.014,241.7
2021-03-30T03:46:03,42.805,6.029,-0.025,-0.009,0.004,111.0,109.0,105.0,13.3,1505.2,327.2,-0.8,1.8,2470.132,13.29,0.026,250.2
2021-03-30T03:49:03,42.805,6.029,-0.02,-0.016,-0.019,110.0,108.0,105.0,13.3,1505.2,327.4,-0.8,1.8,2470.092,13.29,0.025,231.3
2021-03-30T03:52:03,42.805,6.029,-0.02,-0.003,0.007,110.0,108.0,105.0,13.4,1505.2,327.1,-0.8,1.8,2470.096,13.29,0.02,261.5
2021-03-30T03:55:03,42.805,6.029,-0.004,-0.002,-0.002,111.0,108.0,105.0,13.3,1505.2,327.2,-0.8,1.8,2470.166,13.29,0.004,243.4
2021-03-30T03:58:04,42.805,6.029,-0.036,-0.001,-0.028,108.0,109.0,105.0,13.4,1505.2,327.5,-0.7,1.8,2470.123,13.29,0.036,268.4
2021-03-30T04:04:02,42.805,6.029,-0.013,0.006,-0.012,111.0,108.0,106.0,13.4,1505.2,327.7,-0.8,1.8,2470.167,13.28,0.014,294.8
2021-03-30T04:07:03,42.805,6.029,-0.021,0.016,-0.003,110.0,109.0,105.0,13.3,1505.2,327.3,-0.8,1.8,2470.19,13.28,0.026,307.3
2021-03-30T04:10:03,42.805,6.029,-0.001,-0.002,0.001,111.0,110.0,105.0,13.3,1505.2,327.5,-0.7,1.8,2470.188,13.28,0.002,206.6
2021-03-30T04:13:03,42.805,6.029,-0.025,0.001,0.002,110.0,110.0,106.0,13.4,1505.2,327.1,-0.7,1.8,2470.182,13.28,0.025,272.3
2021-03-30T04:16:03,42.805,6.029,0.001,0.011,0.007,110.0,109.0,108.0,13.4,1505.2,327.8,-0.7,1.8,2470.176,13.29,0.011,5.2
2021-03-30T04:19:03,42.805,6.029,-0.033,-0.003,-0.002,110.0,109.0,105.0,13.4,1505.2,327.2,-0.8,1.8,2470.221,13.29,0.033,264.8
2021-03-30T04:22:03,42.805,6.029,-0.017,-0.002,-0.001,111.0,109.0,105.0,13.4,1505.2,327.7,-0.7,1.8,2470.203,13.29,0.017,263.3
2021-03-30T04:25:03,42.805,6.029,-0.013,-0.001,0.0,109.0,108.0,106.0,13.4,1505.2,327.4,-0.8,1.8,2470.207,13.29,0.013,265.6
2021-03-30T04:28:03,42.805,6.029,-0.013,-0.007,0.002,109.0,107.0,105.0,13.3,1505.2,327.3,-0.8,1.8,2470.234,13.29,0.014,241.7
2021-03-30T04:31:03,42.805,6.029,-0.014,-0.001,0.012,110.0,109.0,105.0,13.4,1505.2,327.9,-0.7,1.8,2470.232,13.29,0.014,265.9
2021-03-30T04:34:03,42.805,6.029,0.004,-0.004,0.006,109.0,108.0,104.0,13.3,1505.2,327.0,-0.8,1.8,2470.209,13.29,0.005,135.0
2021-03-30T04:37:03,42.805,6.029,-0.014,-0.015,-0.013,108.0,108.0,106.0,13.3,1505.2,327.3,-0.7,1.8,2470.223,13.29,0.02,223.0
2021-03-30T04:40:03,42.805,6.029,-0.027,-0.002,-0.007,108.0,109.0,105.0,13.3,1505.2,327.2,-0.8,1.8,2470.254,13.29,0.027,265.8
2021-03-30T04:43:03,42.805,6.029,0.007,0.002,-0.016,108.0,109.0,105.0,13.4,1505.2,327.7,-0.7,1.8,2470.242,13.29,0.007,74.1
2021-03-30T04:46:03,42.805,6.029,-0.019,-0.023,-0.015,108.0,110.0,106.0,13.3,1505.2,327.8,-0.7,1.8,2470.25,13.29,0.029,219.6
2021-03-30T04:49:03,42.805,6.029,-0.009,-0.004,0.001,109.0,109.0,104.0,13.3,1505.2,327.8,-0.8,1.8,2470.227,13.29,0.009,246.0
2021-03-30T04:52:03,42.805,6.029,-0.029,0.027,-0.008,109.0,109.0,105.0,13.4,1505.2,327.0,-0.8,1.8,2470.253,13.29,0.039,313.0
2021-03-30T04:55:03,42.805,6.029,-0.012,-0.005,0.014,110.0,109.0,105.0,13.4,1505.2,327.4,-0.8,1.8,2470.22,13.29,0.013,247.4
2021-03-30T04:58:03,42.805,6.029,-0.017,-0.011,0.011,110.0,109.0,106.0,13.4,1505.2,327.4,-0.7,1.8,2470.24,13.29,0.02,237.1
2021-03-30T05:04:03,42.805,6.029,-0.017,-0.004,0.028,109.0,109.0,105.0,13.3,1505.2,327.3,-0.8,1.8,2470.298,13.28,0.017,256.8
2021-03-30T05:07:03,42.805,6.029,-0.017,-0.011,-0.033,110.0,109.0,105.0,13.3,1505.2,327.3,-0.7,1.8,2470.327,13.28,0.02,237.1
2021-03-30T05:10:03,42.805,6.029,-0.012,-0.004,0.007,109.0,109.0,107.0,13.4,1505.2,327.8,-0.7,1.8,2470.276,13.28,0.012,251.6
2021-03-30T05:13:03,42.805,6.029,-0.022,0.008,0.001,109.0,108.0,105.0,13.4,1505.2,327.2,-0.7,1.8,2470.293,13.29,0.023,290.0
2021-03-30T05:16:03,42.805,6.029,-0.005,-0.005,0.004,109.0,109.0,106.0,13.4,1505.2,327.1,-0.8,1.8,2470.281,13.29,0.007,225.0
2021-03-30T05:19:03,42.805,6.029,0.001,0.018,0.021,109.0,107.0,106.0,13.3,1505.2,327.0,-0.8,1.8,2470.271,13.29,0.018,3.2
2021-03-30T05:22:03,42.805,6.029,-0.003,0.012,0.009,110.0,109.0,105.0,13.3,1505.2,327.8,-0.8,1.8,2470.284,13.29,0.012,346.0
2021-03-30T05:25:03,42.805,6.029,-0.016,-0.046,-0.007,109.0,109.0,106.0,13.4,1505.2,327.1,-0.7,1.8,2470.284,13.29,0.048,199.2
2021-03-30T05:28:03,42.805,6.029,-0.021,0.002,0.022,109.0,108.0,106.0,13.4,1505.2,328.0,-0.8,1.8,2470.3,13.29,0.021,275.4
2021-03-30T05:31:03,42.805,6.029,-0.025,0.009,-0.021,110.0,109.0,106.0,13.3,1505.2,327.8,-0.7,1.8,2470.311,13.29,0.026,289.8
2021-03-30T05:34:03,42.805,6.029,-0.006,-0.008,-0.001,108.0,107.0,105.0,13.4,1505.2,327.1,-0.8,1.8,2470.327,13.29,0.01,216.9
2021-03-30T05:37:03,42.805,6.029,0.008,0.004,-0.005,109.0,108.0,106.0,13.4,1505.2,327.7,-0.7,1.8,2470.318,13.29,0.008,63.4
2021-03-30T05:40:03,42.805,6.029,-0.006,-0.017,-0.003,109.0,109.0,105.0,13.4,1505.2,327.7,-0.7,1.8,2470.305,13.29,0.018,199.4
2021-03-30T05:43:03,42.805,6.029,-0.028,-0.018,0.01,109.0,109.0,104.0,13.4,1505.2,327.1,-0.7,1.8,2470.343,13.29,0.033,237.3
2021-03-30T05:46:03,42.805,6.029,-0.019,0.004,-0.012,110.0,108.0,106.0,13.4,1505.2,327.1,-0.7,1.8,2470.335,13.29,0.019,281.9
2021-03-30T05:49:03,42.805,6.029,-0.025,-0.007,-0.012,110.0,108.0,105.0,13.3,1505.2,327.4,-0.8,1.9,2470.336,13.29,0.025,254.4
2021-03-30T05:52:03,42.805,6.029,-0.014,-0.01,0.0,111.0,108.0,105.0,13.3,1505.2,327.4,-0.8,1.8,2470.314,13.29,0.017,234.5
2021-03-30T05:55:03,42.805,6.029,-0.012,-0.012,0.011,110.0,111.0,105.0,13.3,1505.2,327.5,-0.7,1.8,2470.366,13.29,0.016,225.0
2021-03-30T05:58:03,42.805,6.029,-0.026,-0.018,-0.016,111.0,111.0,106.0,13.4,1505.2,327.4,-0.8,1.8,2470.341,13.29,0.031,235.3
2021-03-30T06:04:03,42.805,6.029,-0.025,-0.009,-0.019,110.0,109.0,106.0,13.4,1505.2,327.3,-0.8,1.8,2470.377,13.28,0.026,250.2
2021-03-30T06:07:03,42.805,6.029,-0.003,0.002,-0.003,110.0,108.0,107.0,13.4,1505.2,327.2,-0.7,1.8,2470.364,13.28,0.003,303.7
2021-03-30T06:10:03,42.805,6.029,-0.033,-0.021,-0.004,110.0,110.0,104.0,13.4,1505.2,327.0,-0.8,1.8,2470.378,13.28,0.039,237.5
2021-03-30T06:13:03,42.805,6.029,-0.016,-0.009,-0.011,110.0,111.0,105.0,13.3,1505.2,327.5,-0.8,1.8,2470.369,13.28,0.018,240.6
2021-03-30T06:16:03,42.805,6.029,-0.008,-0.015,0.019,109.0,111.0,105.0,13.3,1505.2,327.4,-0.8,1.8,2470.389,13.28,0.017,208.1
2021-03-30T06:19:03,42.805,6.029,-0.028,-0.005,-0.023,111.0,110.0,106.0,13.4,1505.2,327.3,-0.7,1.8,2470.367,13.28,0.028,259.9
2021-03-30T06:22:03,42.805,6.029,-0.012,0.007,-0.011,109.0,107.0,107.0,13.3,1505.2,327.6,-0.8,1.9,2470.414,13.28,0.013,300.3
2021-03-30T06:25:03,42.805,6.029,-0.035,0.005,-0.015,110.0,110.0,105.0,13.4,1505.2,327.1,-0.7,1.8,2470.355,13.28,0.035,278.1
2021-03-30T06:28:03,42.805,6.029,-0.027,0.001,0.0,111.0,108.0,106.0,13.3,1505.2,327.7,-0.7,1.8,2470.382,13.29,0.027,272.1
2021-03-30T06:31:03,42.805,6.029,-0.016,0.003,-0.025,110.0,109.0,107.0,13.4,1505.2,327.5,-0.7,1.8,2470.413,13.29,0.016,280.6
2021-03-30T06:34:03,42.805,6.029,-0.008,-0.024,-0.022,109.0,110.0,107.0,13.4,1505.2,327.2,-0.7,1.8,2470.371,13.29,0.025,198.4
2021-03-30T06:37:03,42.805,6.029,-0.029,-0.016,-0.011,112.0,110.0,105.0,13.3,1505.2,327.7,-0.8,1.8,2470.414,13.29,0.033,241.1
2021-03-30T06:40:03,42.805,6.029,-0.025,-0.002,-0.004,112.0,112.0,106.0,13.4,1505.2,327.5,-0.8,1.8,2470.379,13.29,0.025,265.4
2021-03-30T06:43:03,42.805,6.029,-0.023,-0.001,0.024,111.0,111.0,107.0,13.4,1505.2,327.0,-0.8,1.8,2470.388,13.29,0.023,267.5
2021-03-30T06:46:03,42.805,6.029,-0.033,-0.016,0.01,110.0,110.0,105.0,13.3,1505.2,327.5,-0.7,1.8,2470.377,13.29,0.036,244.1
2021-03-30T06:49:03,42.805,6.029,-0.035,-0.002,-0.023,110.0,109.0,105.0,13.4,1505.2,327.6,-0.8,1.8,2470.401,13.29,0.035,266.7
2021-03-30T06:52:03,42.805,6.029,-0.027,-0.011,0.012,109.0,108.0,106.0,13.3,1505.2,327.4,-0.8,1.8,2470.416,13.29,0.029,247.8
2021-03-30T06:55:03,42.805,6.029,-0.039,0.003,-0.008,109.0,108.0,106.0,13.3,1505.2,327.8,-0.7,1.8,2470.389,13.29,0.039,274.4
2021-03-30T06:58:03,42.805,6.029,-0.022,0.001,-0.016,110.0,110.0,104.0,13.4,1505.2,327.5,-0.8,1.8,2470.414,13.29,0.022,272.6
2021-03-30T07:04:03,42.805,6.029,-0.03,-0.001,0.015,110.0,109.0,106.0,13.4,1505.2,327.3,-0.8,1.9,2470.455,13.28,0.03,268.1
2021-03-30T07:07:03,42.805,6.029,-0.019,-0.012,0.022,112.0,111.0,106.0,13.4,1505.2,327.2,-0.8,1.8,2470.452,13.28,0.022,237.7
2021-03-30T07:10:03,42.805,6.029,-0.018,-0.002,-0.046,112.0,110.0,105.0,13.4,1505.2,327.6,-0.7,1.8,2470.464,13.28,0.018,263.7
2021-03-30T07:13:03,42.805,6.029,-0.02,0.007,-0.009,111.0,109.0,105.0,13.4,1505.2,327.8,-0.7,1.8,2470.425,13.28,0.021,289.3
2021-03-30T07:16:03,42.805,6.029,-0.037,-0.002,-0.014,110.0,110.0,107.0,13.4,1505.2,327.5,-0.7,1.8,2470.433,13.29,0.037,266.9
2021-03-30T07:19:03,42.805,6.029,-0.031,0.009,-0.017,112.0,108.0,107.0,13.4,1505.2,327.3,-0.8,1.8,2470.44,13.29,0.032,286.2
2021-03-30T07:22:03,42.805,6.029,-0.007,-0.002,0.029,110.0,108.0,106.0,13.4,1505.2,327.0,-0.8,1.8,2470.424,13.29,0.007,254.1
2021-03-30T07:25:03,42.805,6.029,-0.004,-0.01,-0.013,109.0,109.0,105.0,13.4,1505.2,327.5,-0.8,1.8,2470.391,13.29,0.01,201.8
2021-03-30T07:28:03,42.805,6.029,-0.002,-0.004,-0.009,110.0,109.0,106.0,13.4,1505.2,327.6,-0.8,1.8,2470.435,13.29,0.004,206.6
2021-03-30T07:31:03,42.805,6.029,-0.027,0.007,0.001,110.0,109.0,106.0,13.4,1505.2,327.3,-0.8,1.9,2470.437,13.29,0.027,284.5
2021-03-30T07:34:03,42.805,6.029,-0.02,-0.014,0.011,111.0,109.0,107.0,13.4,1505.2,327.7,-0.7,1.8,2470.424,13.29,0.024,235.0
2021-03-30T07:37:03,42.805,6.029,-0.022,0.011,-0.028,112.0,109.0,107.0,13.4,1505.2,327.0,-0.8,1.8,2470.441,13.29,0.024,296.6
2021-03-30T07:40:03,42.805,6.029,-0.032,0.001,0.012,110.0,108.0,107.0,13.4,1505.2,326.9,-0.8,1.8,2470.443,13.29,0.032,271.8
2021-03-30T07:43:03,42.805,6.029,-0.019,0.014,0.003,110.0,110.0,107.0,13.4,1505.2,327.4,-0.8,1.8,2470.437,13.29,0.023,306.4
2021-03-30T07:46:03,42.805,6.029,-0.028,-0.001,0.0,111.0,110.0,105.0,13.3,1505.2,327.5,-0.7,1.8,2470.487,13.29,0.028,268.0
2021-03-30T07:49:03,42.805,6.029,0.0,-0.008,0.0,110.0,109.0,106.0,13.4,1505.2,327.3,-0.7,1.8,2470.388,13.29,0.008,180.0
2021-03-30T07:52:03,42.805,6.029,-0.014,0.003,-0.023,109.0,112.0,106.0,13.4,1505.2,326.7,-0.8,1.8,2470.447,13.29,0.014,282.1
2021-03-30T07:55:03,42.805,6.029,-0.031,-0.016,0.012,110.0,110.0,105.0,13.4,1505.2,327.1,-0.8,1.8,2470.444,13.29,0.034,242.7
2021-03-30T07:58:03,42.805,6.029,-0.023,-0.025,0.008,111.0,109.0,105.0,13.4,1505.2,327.3,-0.7,1.8,2470.407,13.29,0.033,222.6
2021-03-30T08:04:03,42.805,6.029,-0.019,0.018,0.004,110.0,109.0,106.0,13.4,1505.2,327.6,-0.8,1.9,2470.453,13.28,0.026,313.5
2021-03-30T08:07:03,42.805,6.029,-0.018,-0.015,-0.028,112.0,110.0,105.0,13.4,1505.2,327.2,-0.7,1.8,2470.423,13.28,0.023,230.2
2021-03-30T08:10:03,42.805,6.029,-0.032,0.007,-0.05,110.0,109.0,106.0,13.4,1505.2,327.0,-0.8,1.8,2470.507,13.28,0.032,282.3
2021-03-30T08:13:03,42.805,6.029,-0.022,0.018,0.009,110.0,109.0,106.0,13.4,1505.2,327.4,-0.8,1.8,2470.408,13.28,0.028,309.3
2021-03-30T08:16:03,42.805,6.029,-0.009,-0.008,-0.019,110.0,110.0,106.0,13.3,1505.2,327.1,-0.8,1.8,2470.434,13.28,0.012,228.4
2021-03-30T08:19:03,42.805,6.029,-0.032,0.008,-0.002,110.0,109.0,106.0,13.4,1505.2,327.1,-0.8,1.8,2470.431,13.28,0.032,284.0
2021-03-30T08:22:03,42.805,6.029,-0.024,0.002,0.02,112.0,111.0,107.0,13.4,1505.2,327.5,-0.8,1.8,2470.411,13.29,0.024,274.8
2021-03-30T08:25:03,42.805,6.029,-0.021,0.007,0.022,108.0,109.0,106.0,13.4,1505.2,327.4,-0.7,1.8,2470.424,13.29,0.022,288.4
2021-03-30T08:28:03,42.805,6.029,-0.026,-0.021,0.004,110.0,109.0,106.0,13.4,1505.2,327.1,-0.7,1.8,2470.458,13.29,0.033,231.1
2021-03-30T08:31:03,42.805,6.029,-0.008,-0.005,-0.015,110.0,110.0,106.0,13.4,1505.2,327.3,-0.7,1.8,2470.438,13.29,0.009,238.0
2021-03-30T08:34:03,42.805,6.029,-0.012,0.021,-0.015,111.0,109.0,106.0,13.4,1505.2,327.6,-0.7,1.8,2470.417,13.29,0.024,330.3
2021-03-30T08:37:03,42.805,6.029,-0.004,0.0,-0.014,111.0,109.0,107.0,13.3,1505.2,327.7,-0.8,1.8,2470.438,13.29,0.004,270.0
2021-03-30T08:40:03,42.805,6.029,-0.025,-0.009,0.004,111.0,111.0,107.0,13.4,1505.2,327.7,-0.8,1.9,2470.442,13.29,0.026,250.2
2021-03-30T08:43:03,42.805,6.029,-0.03,0.013,0.025,111.0,111.0,106.0,13.4,1505.2,327.3,-0.8,1.8,2470.405,13.29,0.032,293.4
2021-03-30T08:46:03,42.805,6.029,-0.025,-0.007,0.001,111.0,110.0,106.0,13.4,1505.2,327.1,-0.7,1.8,2470.413,13.29,0.025,254.4
2021-03-30T08:49:03,42.805,6.029,-0.034,-0.006,-0.01,112.0,111.0,107.0,13.3,1505.2,327.8,-0.7,1.8,2470.405,13.29,0.034,260.0
2021-03-30T08:52:03,42.805,6.029,-0.018,0.011,-0.023,111.0,109.0,107.0,13.4,1505.2,327.6,-0.8,1.9,2470.43,13.29,0.021,301.4
2021-03-30T08:55:03,42.805,6.029,-0.019,-0.013,-0.005,111.0,111.0,105.0,13.4,1505.2,327.0,-0.8,1.8,2470.434,13.28,0.023,235.6
2021-03-30T08:58:03,42.805,6.029,-0.023,0.0,-0.014,112.0,111.0,107.0,13.4,1505.2,327.5,-0.8,1.8,2470.368,13.28,0.023,270.0
2021-03-30T09:04:03,42.805,6.029,-0.024,0.013,0.009,111.0,110.0,108.0,13.4,1505.2,327.3,-0.8,1.8,2470.438,13.28,0.027,298.4
2021-03-30T09:07:03,42.805,6.029,-0.024,0.031,0.02,110.0,111.0,107.0,13.4,1505.2,327.3,-0.8,1.8,2470.425,13.28,0.039,322.3
2021-03-30T09:10:03,42.805,6.029,-0.033,0.0,-0.003,112.0,111.0,107.0,13.4,1505.2,327.5,-0.7,1.8,2470.404,13.28,0.033,270.0
2021-03-30T09:13:03,42.805,6.029,-0.008,-0.003,-0.038,110.0,111.0,106.0,13.4,1505.2,327.4,-0.8,1.8,2470.426,13.28,0.008,249.4
2021-03-30T09:16:03,42.805,6.029,-0.018,0.01,-0.017,111.0,111.0,106.0,13.4,1505.2,327.4,-0.7,1.8,2470.404,13.28,0.02,299.1
2021-03-30T09:19:03,42.805,6.029,-0.026,0.013,-0.01,111.0,111.0,107.0,13.4,1505.2,327.5,-0.8,1.8,2470.427,13.28,0.029,296.6
2021-03-30T09:22:03,42.805,6.029,-0.03,-0.003,0.009,113.0,113.0,108.0,13.3,1505.2,327.8,-0.7,1.8,2470.414,13.28,0.03,264.3
2021-03-30T09:25:03,42.805,6.029,-0.021,0.027,-0.014,112.0,113.0,107.0,13.3,1505.2,327.8,-0.7,1.8,2470.437,13.28,0.034,322.1
2021-03-30T09:28:03,42.805,6.029,-0.026,0.0,0.018,113.0,111.0,108.0,13.4,1505.2,327.4,-0.7,1.8,2470.388,13.29,0.026,270.0
2021-03-30T09:31:03,42.805,6.029,-0.017,-0.001,0.009,113.0,112.0,108.0,13.4,1505.2,327.5,-0.8,1.8,2470.379,13.28,0.017,266.6
2021-03-30T09:34:03,42.805,6.029,-0.016,-0.005,0.0,112.0,110.0,107.0,13.4,1505.2,327.5,-0.8,1.8,2470.378,13.28,0.016,252.6
2021-03-30T09:37:03,42.805,6.029,-0.04,0.013,-0.005,111.0,110.0,107.0,13.3,1505.2,327.3,-0.8,1.8,2470.378,13.29,0.042,288.0
2021-03-30T09:40:03,42.805,6.029,-0.037,0.014,-0.029,113.0,109.0,106.0,13.4,1505.2,327.4,-0.7,1.8,2470.386,13.29,0.039,290.7
2021-03-30T09:43:03,42.805,6.029,-0.024,-0.001,0.016,110.0,110.0,106.0,13.4,1505.2,327.1,-0.8,1.8,2470.351,13.29,0.024,267.6
2021-03-30T09:46:03,42.805,6.029,-0.023,0.0,-0.009,108.0,111.0,106.0,13.4,1505.2,327.6,-0.8,1.8,2470.394,13.29,0.023,270.0
2021-03-30T09:49:03,42.805,6.029,-0.016,0.0,0.033,111.0,110.0,106.0,13.4,1505.2,327.6,-0.8,1.8,2470.41,13.29,0.016,270.0
2021-03-30T09:52:03,42.805,6.029,-0.024,0.004,0.021,110.0,110.0,106.0,13.3,1505.2,327.2,-0.8,1.8,2470.379,13.29,0.024,279.5